OBJECT B, 65260

Orbit data source: Space-Track

You're viewing an Uncataloged Satellite

Recently launched and/or uncataloged satellites may have evolving metadata. Metadata may include but not limited to: Owner, Maufacturer, Bus, Motor, and Mission.

OBJECT B, 65260 is a Chinese satellite in SSO that was launched on Tue, 19 Aug 2025 UTC via a LIJIAN-1 launch vehicle from the Jiuquan Satellite Launch Center, China (JSC). Unknown objects in Earth's orbit typically refer to objects detected orbiting the Earth but have not yet been identified or cataloged. These objects could be anything from previously untracked satellites, spent rocket stages, debris from satellite collisions, or even natural meteoroids temporarily captured by Earth's gravity.

Loading next visibility...
Identifier
65260, 2025-180B
Orbit
SSO
Country
Flag of CNCN / PRC
Related business
None
Manufacturer
Unknown
Mission
Operational Defense Technology
Bus & Motor
Unknown
Mass
Unknown
Launch date (UTC)
2025-08-19 (10 months ago)
Launch vehicle
LIJIAN-1
Launch site
Jiuquan Satellite Launch Center, China (JSC)
Object type
Unknown
Shape & HBR
Box, 1.1 m
Radar Cross Section
0.080 m², Large (>1 m²)

Expand to show TLE details & history
Last TLE update: 2 weeks ago

TLE from 2 weeks ago
0 OBJECT B
1 65260U 25180B   26160.60446131  .00003069  00000-0  16576-3 0  9991
2 65260  97.5265 287.9062 0014049 355.7197   4.3913 15.15391461 44514
Epoch: 2026-06-09T14:30Z
TLE epoch observation values (Epoch: 2026-06-09T14:30:25.457Z)
Latitude
0.00002°
Longitude
172.32555°
Altitude
513.206 km
Speed
7.612 km/s
True Right ascension
19h 11m 37s
True Declination
0° 00' 00"
Sunlit
Object was in full shadow at epoch
Visualization orbit readout
Latitude
Unknown
Longitude
Unknown
Altitude
Unknown
Speed
Unknown
Apparent Right ascension
Unknown
Apparent Declination
Unknown
Sunlit
N/A
Visualization observer readout
Local Sidereal Time
08:41:56
Azimuth
Unknown
Elevation
Unknown
Doppler factor
Unknown
Orbital elements
Apogee altitude
526.454 km
Perigee altitude
507.081 km
Semi-major axis
6,894.905 km
Eccentricity
0.0014
Inclination
97.5265°
RAAN
287.9062°
Arg. of periapsis
355.7197°
True anomaly
4.40365°
Mean anomaly
4.3913°
Eccentric anomaly
4.39747°
Mean motion
3.79097 °/min
Orbital period
94.96 mins
BSTAR
0.00016576
Loading maneuver chart data...
Computing Atmospheric mass density...
Loading historical data...
Loading historical data...
Loading historical data...
Loading historical data...
Loading historical data...
Loading historical data...
Loading historical data...
Other satellites on launch #180 in the year 2025 (2025-08-19 UTC)

Documentation

Showing up to 5 results
|